Location: Mattaponi
(37.5353°N, 76.7712°W)
Time: 15:34:12
(UTC+00:00)

Envisat - Visible Passes

Search period start: 19 April 2024 00:00
Search period end: 29 April 2024 00:00
Orbit: 762 x 764 km, 98.3° (Epoch: 19 April)

Date Brightness Start Highest point End Pass type
(mag) Time Alt. Az. Time Alt. Az. Time Alt. Az.
19 Apr 3.9 07:59:51 10° NNE 08:04:43 45° E 08:06:44 30° SSE visible
19 Apr 4.4 09:39:43 10° NNW 09:43:19 20° WNW 09:46:53 10° WSW visible
20 Apr 5.1 07:23:35 10° NE 07:27:10 19° E 07:29:03 16° ESE visible
20 Apr 3.4 09:01:30 10° N 09:06:18 44° WNW 09:09:13 22° SW visible
21 Apr 3.0 08:23:59 10° NNE 08:29:05 80° ESE 08:31:33 31° S visible
22 Apr 4.4 07:47:05 10° NNE 07:51:40 33° E 07:53:53 23° SE visible
22 Apr 4.1 09:26:18 10° NNW 09:30:27 26° WNW 09:34:02 12° WSW visible
23 Apr 5.5 07:11:23 10° ENE 07:14:02 14° E 07:16:12 11° ESE visible
23 Apr 3.1 08:48:22 10° N 08:53:21 59° WNW 08:56:22 23° SW visible
24 Apr 3.4 08:11:03 10° NNE 08:16:04 59° E 08:18:41 27° S visible
24 Apr 4.7 09:51:36 10° NNW 09:54:29 15° WNW 09:57:23 10° W visible
25 Apr 4.8 07:34:25 10° NE 07:38:34 25° E 07:41:00 18° SE visible
25 Apr 3.8 09:13:00 10° N 09:17:32 34° WNW 09:21:10 15° SW visible
26 Apr 5.7 07:00:49 10° E 07:00:52 10° E 07:00:56 10° E visible
26 Apr 2.9 08:35:17 10° N 08:40:23 79° WNW 08:43:29 24° SSW visible
27 Apr 3.9 07:58:10 10° NNE 08:03:01 44° E 08:05:47 23° SSE visible
27 Apr 4.4 09:37:59 10° NNW 09:41:38 20° WNW 09:45:16 10° WSW visible
28 Apr 5.2 07:21:56 10° NE 07:25:27 19° E 07:28:05 13° SE visible
28 Apr 3.4 08:59:47 10° N 09:04:36 45° WNW 09:08:15 17° SW visible
